Tracking 23752 objects as of 23-Oct-2021
HD Live streaming from Space Station
objects crossing your sky now

GB 2

Track GB 2 now!
10-day predictions
GB 2 is classified as:


NORAD ID: 14144
Int'l Code: 1983-056D
Perigee: 388.7 km
Apogee: 1,725.9 km
Inclination: 63.3 °
Period: 106.2 minutes
Semi major axis: 7428 km
RCS: Unknown
Launch date: June 9, 1983
Source: United States (US)
Launch site: AIR FORCE WESTERN TEST RANGE (AFWTR)
aabbcc
Your satellite tracking list
Your tracking list is empty




NASA's NSSDC Master Catalog

Two Line Element Set (TLE):
1 14144U 83056D   21295.85544473  .00001931  00000-0  16356-3 0  9993
2 14144  63.2971 183.8161 0900069 101.7133 268.6193 13.56017490123740
Source of the keplerian elements: McCants